When you browse on this site, cookies collect data to enhance your experience and personalize the content and advertising you see.
Visit our Privacy Policy to learn more. By continuing to use the site, you agree to this use of cookies and data.
  • In Romania
  • List of Countries
  • For 7 days
  • Water Temperature
  • Satellite Maps
  • Weather Map
  • Weather Widgets
  • user-avatar
    Login

    Hourly Weather Gumla

    Today, 16 July, Tuesday

    Time Temperature Precipitation Wind Pressure Humidity
    00:00 +28°C° 0 mm 2 mps 698 mmHg 76%
    01:00 +27°C° 0 mm 2 mps 698 mmHg 79%
    02:00 +27°C° 0 mm 2 mps 698 mmHg 81%
    03:00 +27°C° 0 mm 2 mps 697 mmHg 84%
    04:00 +26°C° 0 mm 2 mps 697 mmHg 84%
    05:00 +26°C° 0 mm 2 mps 698 mmHg 85%
    06:00 +26°C° 0 mm 2 mps 698 mmHg 86%
    07:00 +28°C° 0.1 mm 2 mps 698 mmHg 77%
    08:00 +30°C° 0.1 mm 2 mps 699 mmHg 69%
    09:00 +33°C° 0.1 mm 3 mps 700 mmHg 60%
    10:00 +34°C° 0.9 mm 3 mps 700 mmHg 56%
    11:00 +35°C° 0.9 mm 3 mps 700 mmHg 52%
    12:00 +36°C° 0.9 mm 2 mps 700 mmHg 48%
    13:00 +36°C° 0 mm 2 mps 699 mmHg 47%
    14:00 +36°C° 0 mm 2 mps 699 mmHg 46%
    15:00 +35°C° 0 mm 1 mps 698 mmHg 46%
    16:00 +35°C° 0 mm 2 mps 698 mmHg 49%
    17:00 +35°C° 0 mm 2 mps 698 mmHg 53%
    18:00 +34°C° 0 mm 3 mps 698 mmHg 56%
    19:00 +32°C° 0.4 mm 2 mps 698 mmHg 62%
    20:00 +30°C° 0.4 mm 2 mps 698 mmHg 67%
    21:00 +29°C° 0.4 mm 2 mps 698 mmHg 72%
    22:00 +29°C° 0.7 mm 2 mps 698 mmHg 75%
    23:00 +28°C° 0.7 mm 1 mps 698 mmHg 77%

    Tomorrow, 17 July, Wednesday

    Time Temperature Precipitation Wind Pressure Humidity
    00:00 +28°C° 0.7 mm 1 mps 699 mmHg 80%
    01:00 +28°C° 0.2 mm 1 mps 698 mmHg 80%
    02:00 +28°C° 0.2 mm 1 mps 698 mmHg 79%
    03:00 +27°C° 0.2 mm 1 mps 698 mmHg 79%
    04:00 +27°C° 0 mm 1 mps 698 mmHg 78%
    05:00 +27°C° 0 mm 1 mps 698 mmHg 78%
    06:00 +27°C° 0 mm 1 mps 698 mmHg 78%
    07:00 +29°C° 0 mm 1 mps 698 mmHg 71%
    08:00 +30°C° 0 mm 1 mps 699 mmHg 64%
    09:00 +32°C° 0 mm 2 mps 699 mmHg 57%
    10:00 +34°C° 0 mm 2 mps 699 mmHg 53%
    11:00 +35°C° 0 mm 3 mps 699 mmHg 49%
    12:00 +36°C° 0 mm 4 mps 699 mmHg 45%
    13:00 +36°C° 0 mm 4 mps 698 mmHg 46%
    14:00 +36°C° 0 mm 4 mps 698 mmHg 47%
    15:00 +36°C° 0 mm 4 mps 697 mmHg 48%
    16:00 +35°C° 0.1 mm 4 mps 697 mmHg 50%
    17:00 +35°C° 0.1 mm 4 mps 697 mmHg 52%
    18:00 +34°C° 0.1 mm 4 mps 697 mmHg 54%
    19:00 +33°C° 0.5 mm 3 mps 697 mmHg 60%
    20:00 +31°C° 0.5 mm 2 mps 697 mmHg 66%
    21:00 +27°C° 0.5 mm 0 mps 698 mmHg 71%
    22:00 +29°C° 0.2 mm 1 mps 698 mmHg 75%
    23:00 +28°C° 0.2 mm 1 mps 698 mmHg 76%

    Day after tomorrow, 18 July, Thursday

    Time Temperature Precipitation Wind Pressure Humidity
    00:00 +28°C° 0.2 mm 1 mps 698 mmHg 77%
    01:00 +28°C° 0.1 mm 1 mps 698 mmHg 77%
    02:00 +28°C° 0.1 mm 1 mps 697 mmHg 76%
    03:00 +28°C° 0.1 mm 1 mps 697 mmHg 76%
    04:00 +28°C° 0.5 mm 1 mps 697 mmHg 77%
    05:00 +27°C° 0.5 mm 1 mps 697 mmHg 78%
    06:00 +27°C° 0.5 mm 1 mps 697 mmHg 80%
    07:00 +29°C° 0.3 mm 1 mps 697 mmHg 74%
    08:00 +30°C° 0.3 mm 1 mps 698 mmHg 67%
    09:00 +32°C° 0.3 mm 1 mps 698 mmHg 61%
    10:00 +33°C° 0.2 mm 1 mps 698 mmHg 56%
    11:00 +35°C° 0.2 mm 2 mps 698 mmHg 51%
    12:00 +36°C° 0.2 mm 2 mps 698 mmHg 45%
    13:00 +36°C° 0.1 mm 2 mps 698 mmHg 46%
    14:00 +36°C° 0.1 mm 2 mps 697 mmHg 46%
    15:00 +36°C° 0.1 mm 2 mps 697 mmHg 46%
    16:00 +35°C° 0.2 mm 3 mps 697 mmHg 51%
    17:00 +34°C° 0.2 mm 3 mps 696 mmHg 55%
    18:00 +33°C° 0.2 mm 3 mps 696 mmHg 60%
    19:00 +32°C° 0.2 mm 2 mps 697 mmHg 63%
    20:00 +31°C° 0.2 mm 2 mps 697 mmHg 66%
    21:00 +30°C° 0.2 mm 1 mps 697 mmHg 69%
    22:00 +30°C° 0.2 mm 1 mps 697 mmHg 70%
    23:00 +30°C° 0.2 mm 1 mps 698 mmHg 71%

    19 July, Friday

    Time Temperature Precipitation Wind Pressure Humidity
    00:00 +27°C° 0.2 mm 0 mps 698 mmHg 71%
    01:00 +27°C° 1 mm 0 mps 697 mmHg 73%
    02:00 +27°C° 1 mm 0 mps 697 mmHg 75%
    03:00 +26°C° 1 mm 0 mps 697 mmHg 77%
    04:00 +26°C° 0.3 mm 0 mps 697 mmHg 78%
    05:00 +26°C° 0.3 mm 0 mps 697 mmHg 78%
    06:00 +26°C° 0.3 mm 0 mps 698 mmHg 78%
    07:00 +27°C° 0.5 mm 0 mps 698 mmHg 73%
    08:00 +29°C° 0.5 mm 0 mps 699 mmHg 67%
    09:00 +32°C° 0.5 mm 1 mps 699 mmHg 62%
    10:00 +33°C° 2 mm 1 mps 699 mmHg 59%
    11:00 +33°C° 2 mm 1 mps 699 mmHg 56%
    12:00 +34°C° 2 mm 1 mps 699 mmHg 53%
    13:00 +34°C° 0.2 mm 1 mps 698 mmHg 52%
    14:00 +34°C° 0.2 mm 1 mps 698 mmHg 52%
    15:00 +35°C° 0.2 mm 2 mps 697 mmHg 51%
    16:00 +35°C° 0.6 mm 2 mps 697 mmHg 56%
    17:00 +34°C° 0.6 mm 2 mps 697 mmHg 60%
    18:00 +32°C° 0.6 mm 2 mps 697 mmHg 64%
    19:00 +32°C° 1 mm 1 mps 697 mmHg 68%
    20:00 +31°C° 1 mm 1 mps 697 mmHg 71%
    21:00 +28°C° 1 mm 0 mps 698 mmHg 74%
    22:00 +30°C° 0.2 mm 1 mps 698 mmHg 75%
    23:00 +29°C° 0.2 mm 1 mps 698 mmHg 76%

    20 July, Saturday

    Time Temperature Precipitation Wind Pressure Humidity
    00:00 +29°C° 0.2 mm 1 mps 698 mmHg 77%
    01:00 +29°C° 0 mm 1 mps 698 mmHg 79%
    02:00 +28°C° 0 mm 1 mps 698 mmHg 81%
    03:00 +28°C° 0 mm 2 mps 697 mmHg 84%
    04:00 +27°C° 0.1 mm 2 mps 698 mmHg 86%
    05:00 +27°C° 0.1 mm 1 mps 698 mmHg 88%
    06:00 +27°C° 0.1 mm 1 mps 698 mmHg 90%
    07:00 +28°C° 0.7 mm 2 mps 698 mmHg 84%
    08:00 +29°C° 0.7 mm 3 mps 698 mmHg 78%
    09:00 +31°C° 0.7 mm 3 mps 699 mmHg 72%
    10:00 +33°C° 1.1 mm 3 mps 699 mmHg 68%
    11:00 +34°C° 1.1 mm 3 mps 699 mmHg 63%
    12:00 +35°C° 1.1 mm 3 mps 699 mmHg 59%
    13:00 +35°C° 0.6 mm 2 mps 698 mmHg 57%
    14:00 +35°C° 0.6 mm 2 mps 698 mmHg 56%
    15:00 +35°C° 0.6 mm 2 mps 697 mmHg 55%
    16:00 +35°C° 0.6 mm 2 mps 697 mmHg 57%
    17:00 +34°C° 0.6 mm 2 mps 697 mmHg 60%
    18:00 +34°C° 0.6 mm 2 mps 696 mmHg 63%
    19:00 +32°C° 0.6 mm 2 mps 697 mmHg 67%
    20:00 +31°C° 0.6 mm 1 mps 697 mmHg 70%
    21:00 +30°C° 0.6 mm 1 mps 697 mmHg 74%
    22:00 +30°C° 0.5 mm 2 mps 697 mmHg 76%
    23:00 +29°C° 0.5 mm 3 mps 697 mmHg 78%

    21 July, Sunday

    Time Temperature Precipitation Wind Pressure Humidity
    00:00 +29°C° 0.5 mm 3 mps 697 mmHg 80%
    01:00 +28°C° 0 mm 3 mps 697 mmHg 82%
    02:00 +28°C° 0 mm 2 mps 697 mmHg 84%
    03:00 +27°C° 0 mm 2 mps 696 mmHg 85%
    04:00 +27°C° 0.1 mm 2 mps 696 mmHg 86%
    05:00 +27°C° 0.1 mm 2 mps 696 mmHg 88%
    06:00 +27°C° 0.1 mm 2 mps 696 mmHg 89%
    07:00 +28°C° 0 mm 2 mps 697 mmHg 84%
    08:00 +29°C° 0 mm 3 mps 697 mmHg 78%
    09:00 +30°C° 0 mm 3 mps 698 mmHg 73%
    10:00 +31°C° 1.5 mm 3 mps 697 mmHg 70%
    11:00 +33°C° 1.5 mm 3 mps 697 mmHg 66%
    12:00 +34°C° 1.5 mm 3 mps 697 mmHg 62%
    13:00 +34°C° 0.9 mm 3 mps 697 mmHg 61%
    14:00 +34°C° 0.9 mm 2 mps 696 mmHg 59%
    15:00 +35°C° 0.9 mm 2 mps 696 mmHg 58%
    16:00 +34°C° 0.3 mm 2 mps 696 mmHg 61%
    17:00 +32°C° 0.3 mm 2 mps 696 mmHg 64%
    18:00 +32°C° 0.3 mm 2 mps 695 mmHg 68%
    19:00 +31°C° 0.6 mm 2 mps 696 mmHg 71%
    20:00 +30°C° 0.6 mm 2 mps 696 mmHg 74%
    21:00 +29°C° 0.6 mm 2 mps 696 mmHg 78%
    22:00 +29°C° 0.3 mm 2 mps 696 mmHg 80%
    23:00 +28°C° 0.3 mm 3 mps 696 mmHg 83%
    Show more